Flag for India Weather past 2 weeks in Ootacamund, Tamil Nadu, India

Now
75 °F

Passing clouds.


Feels Like: 75 °F
Forecast: 48 / 60 °F
Wind: No wind

Location: Coimbatore / Peelamedu

Current Time: May 5, 2015 at 2:47:37 AM

Latest Report: May 5, 2015 at 2:30 AM


Visibility: 2 mi

Pressure: 29.86 "Hg

Humidity: 89%

Dew point: 72 °F

Location of OotacamundLocation

Historic Weather in Ootacamund — Graph

°F

Ootacamund temperature yesterday

Maximum temperature yesterday: 97 °F (at 3:30 PM)
Minimum temperature yesterday: 73 °F (at 6:30 PM)
Average temperature yesterday: 84 °F

Past Weeks' High & Low Weather Summary

 TemperatureHumidityPressure
High97 °F (Apr 23, 3:00 PM)94% (Apr 22, 7:30 AM)30.01 "Hg (Apr 22, 7:30 AM)
Low70 °F (Apr 25, 3:30 AM)34% (Apr 24, 5:30 PM)29.77 "Hg (Apr 29, 5:00 PM)
Average85 °F64%29.89 "Hg
* Reported Apr 20 2:30 AM — May 5 12:30 AM, Ootacamund, Weather by CustomWeather, © 2015

Note: Actual official high and low records may vary slightly from our data, if they occured in-between our weather recording intervals... More about our weather records

Advertising

Ootacamund weather history for previous 24 hours

 ConditionsComfort  
Time TempWeatherWind HumidityBarometerVisibility
12:30 AM
Tue, May 5
75 °FPassing clouds.No wind83%29.92 "Hg2 mi
11:30 PM
Mon, May 4
75 °FPartly cloudy.No wind89%29.92 "Hg2 mi
10:30 PM77 °FPartly cloudy.No wind83%29.92 "Hg2 mi
10:00 PM77 °FPartly cloudy.5 mph83%29.89 "Hg2 mi
9:30 PM77 °FPartly cloudy.5 mph83%29.89 "Hg2 mi
9:00 PM77 °FPartly cloudy.6 mph83%29.89 "Hg2 mi
8:30 PM77 °FPartly cloudy.No wind83%29.86 "Hg2 mi
8:00 PM75 °FPartly cloudy.6 mph83%29.86 "Hg2 mi
7:30 PM75 °FPartly cloudy.7 mph83%29.86 "Hg2 mi
7:00 PM73 °FThunderstorms. Broken clouds.8 mph94%29.86 "Hg2 mi
6:30 PM73 °FThunderstorms. Broken clouds.9 mph94%29.86 "Hg2 mi
5:22 PM84 °FBroken clouds.9 mph66%29.83 "Hg2 mi
5:00 PM91 °FScattered clouds.9 mph52%29.80 "Hg3 mi
4:30 PM93 °FScattered clouds.7 mph49%29.77 "Hg3 mi
4:00 PM95 °FScattered clouds.13 mph41%29.77 "Hg3 mi
3:30 PM97 °FScattered clouds.9 mph39%29.77 "Hg3 mi
3:00 PM95 °FScattered clouds.3 mph39%29.77 "Hg3 mi
2:30 PM95 °FScattered clouds.No wind39%29.80 "Hg3 mi
2:00 PM95 °FScattered clouds.3 mph44%29.83 "Hg3 mi
1:30 PM95 °FScattered clouds.No wind44%29.86 "Hg3 mi
1:00 PM93 °FScattered clouds.8 mph47%29.86 "Hg3 mi
12:30 PM93 °FScattered clouds.2 mph47%29.89 "Hg3 mi
12:00 PM91 °FScattered clouds.No wind49%29.89 "Hg3 mi
11:30 AM91 °FScattered clouds.No wind49%29.92 "Hg3 mi
11:00 AM91 °FScattered clouds.No wind49%29.92 "Hg3 mi
10:30 AM90 °FHaze.No wind59%29.95 "Hg3 mi
9:30 AM86 °FHaze.2 mph66%29.95 "Hg3 mi
9:00 AM86 °FHaze.No wind66%29.95 "Hg2 mi
8:30 AM84 °FHaze.No wind70%29.95 "Hg2 mi
7:30 AM81 °FFog.No wind84%29.92 "Hg1 mi
7:00 AM79 °FFog.No wind84%29.89 "Hg1 mi
6:00 AM77 °FFog.No wind94%29.86 "Hg2 mi
5:30 AM77 °FFog.3 mph94%29.83 "Hg2 mi
4:30 AM77 °FFog.7 mph94%29.83 "Hg2 mi
3:30 AM79 °FFog.3 mph89%29.83 "Hg2 mi
3:00 AM79 °FHaze.3 mph89%29.83 "Hg2 mi
Weather by CustomWeather, © 2015

See weather overviewHow to use our weather pages